Date,TemperatureHighF,TemperatureAvgF,TemperatureLowF,DewpointHighF,DewpointAvgF,DewpointLowF,HumidityHigh,HumidityAvg,HumidityLow,PressureMaxIn,PressureMinIn,WindSpeedMaxMPH,WindSpeedAvgMPH,GustSpeedMaxMPH,PrecipitationSumIn
2013-1-1,39,36,32,33,31,28,88,82,74,29.97,29.85,12,5,16,0.00
2013-1-2,41,39,36,38,33,31,89,79,69,30.44,29.94,15,7,21,0.00
2013-1-3,43,39,35,41,35,30,92,85,76,30.46,30.35,24,11,30,0.02
2013-1-4,49,46,43,46,42,38,93,86,71,30.47,30.21,19,8,27,0.33
2013-1-5,49,45,41,45,42,39,97,89,81,30.38,30.20,22,6,29,0.00
2013-1-6,44,42,40,41,40,38,97,90,84,30.37,30.16,16,5,23,0.04
2013-1-7,45,39,37,42,38,36,97,94,88,30.39,30.22,12,2,17,0.06
2013-1-8,42,40,36,40,38,36,98,95,90,30.36,30.21,12,3,14,0.09
2013-1-9,42,41,39,40,38,36,97,91,87,30.24,29.92,12,5,17,0.00
2013-1-10,39,37,35,36,34,32,94,88,80,29.91,29.74,15,7,20,0.13
2013-1-11,35,28,26,32,24,20,96,84,74,30.07,29.75,15,5,22,0.05
2013-1-12,29,26,25,23,20,17,87,78,68,30.14,30.05,10,4,14,0.00
2013-1-13,26,25,24,24,21,18,92,85,75,30.14,30.11,13,2,15,0.00
2013-1-14,28,26,25,26,24,22,95,93,87,30.11,29.95,15,3,18,0.09
2013-1-15,27,25,22,24,23,20,94,93,88,29.98,29.81,11,2,12,0.00
2013-1-16,27,26,25,26,24,24,96,94,92,29.84,29.78,13,2,15,0.00
2013-1-17,27,26,24,25,23,21,94,91,84,29.97,29.80,15,6,20,0.01
2013-1-18,24,21,19,22,19,18,96,92,89,29.96,29.77,12,4,18,0.04
2013-1-19,21,20,19,18,17,16,91,87,83,29.77,29.61,9,3,14,0.00
2013-1-20,26,23,20,25,21,17,94,91,89,29.63,29.52,10,3,13,0.00
2013-1-21,26,24,20,25,23,18,97,96,93,29.65,29.50,9,2,11,0.03
2013-1-22,21,20,18,19,16,15,94,88,82,29.85,29.65,7,2,8,0.00
2013-1-23,23,21,19,22,18,16,95,89,86,29.88,29.84,6,2,8,0.00
2013-1-24,23,22,20,21,20,17,95,91,87,30.06,29.85,11,3,14,0.00
2013-1-25,22,19,15,18,16,13,93,89,86,30.21,30.06,10,3,13,0.00
2013-1-26,17,12,6,14,10,4,93,91,85,30.16,30.09,8,2,10,0.00
2013-1-27,30,25,16,29,22,13,97,90,86,30.09,29.81,8,4,12,0.02
2013-1-28,37,34,30,33,32,29,97,92,85,30.13,29.82,12,4,16,0.02
2013-1-29,42,38,34,40,36,32,93,91,83,30.12,29.90,27,9,27,0.05
2013-1-30,54,48,41,49,44,39,95,89,76,29.93,29.70,27,10,32,0.21
2013-1-31,46,44,37,37,34,31,92,69,56,29.95,29.79,24,10,33,0.06
2013-2-1,44,40,37,37,35,33,95,83,72,29.87,29.30,18,8,23,0.03
2013-2-2,39,36,30,38,32,22,96,84,72,29.79,29.21,22,7,30,0.03
2013-2-3,36,32,27,30,25,22,92,75,63,30.00,29.79,22,5,26,0.00
2013-2-4,40,36,32,37,33,29,95,90,86,29.85,29.74,26,10,31,0.04
2013-2-5,44,39,35,37,34,30,91,82,67,29.85,29.51,20,7,24,0.00
2013-2-6,38,34,31,30,25,21,89,69,51,29.64,29.52,14,3,17,0.00
2013-2-7,35,32,29,31,27,24,95,82,70,29.86,29.64,10,2,14,0.00
2013-2-8,34,30,26,28,25,23,93,83,67,29.98,29.85,7,2,13,0.00
2013-2-9,30,28,26,26,24,21,94,83,71,30.10,29.98,7,2,10,0.00
2013-2-10,30,28,25,24,21,16,89,76,60,30.10,29.96,12,2,14,0.00
2013-2-11,28,26,24,23,21,18,88,80,67,29.95,29.82,14,5,21,0.00
2013-2-12,28,27,26,27,25,22,96,91,82,29.99,29.79,13,5,19,0.09
2013-2-13,29,28,26,27,25,24,97,91,85,30.37,29.99,11,3,16,0.00
2013-2-14,29,27,27,26,25,24,93,91,89,30.37,30.30,8,3,11,0.00
2013-2-16,35,33,33,32,31,31,95,92,87,30.30,30.27,4,0,7,0.00
2013-2-17,34,32,31,32,30,29,97,93,86,30.30,30.27,6,1,7,0.00
2013-2-18,34,32,30,30,29,28,95,89,79,30.27,30.14,6,1,7,0.00
2013-2-19,32,31,29,31,28,26,97,92,79,30.14,29.86,16,6,20,0.08
2013-2-20,30,28,24,26,25,23,94,89,74,30.19,30.00,13,5,20,0.00
2013-2-21,26,24,22,23,21,18,95,89,80,30.21,30.14,10,3,13,0.00
2013-2-22,24,22,20,22,19,15,96,89,80,30.14,29.93,13,6,16,0.05
2013-2-23,28,25,22,27,24,21,97,96,93,29.93,29.80,11,4,15,0.17
2013-2-24,35,31,27,34,30,26,98,97,95,30.01,29.81,8,2,13,0.18
2013-2-25,40,37,34,39,37,34,99,98,94,30.31,29.98,7,3,13,0.11
2013-2-26,38,36,32,38,34,31,98,95,90,30.42,30.29,13,5,19,0.00
2013-2-27,34,33,32,32,32,31,97,96,95,30.47,30.42,8,3,13,0.00
2013-2-28,37,34,32,34,32,30,97,90,80,30.46,30.25,7,2,11,0.00
2013-3-1,36,34,33,32,30,27,91,85,77,30.29,30.18,10,4,15,0.00
2013-3-2,41,35,30,28,26,24,85,71,56,30.32,30.17,12,4,16,0.00
2013-3-3,37,33,29,30,27,24,82,77,70,30.28,30.14,15,5,18,0.00
2013-3-4,44,37,31,30,27,24,86,67,46,30.33,30.23,12,3,15,0.00
2013-3-5,49,39,29,33,29,24,84,69,50,30.23,29.92,13,4,16,0.00
2013-3-6,52,42,32,38,32,28,88,71,55,29.92,29.68,10,2,12,0.00
2013-3-7,48,43,38,44,40,36,96,87,77,29.69,29.62,6,2,9,0.00
2013-3-8,46,43,39,44,42,38,98,95,89,29.69,29.66,8,2,12,0.00
2013-3-9,40,39,37,40,38,36,99,99,97,29.69,29.62,6,1,7,0.03
2013-3-10,54,45,40,46,41,37,99,89,56,29.62,29.46,9,2,14,0.00
2013-3-11,45,28,24,41,26,22,96,90,85,29.74,29.47,11,4,17,0.03
2013-3-12,28,25,24,25,23,21,94,90,86,29.73,29.58,9,4,12,0.00
2013-3-13,26,24,22,23,20,18,98,88,79,29.79,29.57,11,4,15,0.06
2013-3-14,30,24,20,19,17,15,92,75,55,29.88,29.79,17,5,20,0.00
2013-3-15,30,25,21,20,18,15,90,77,56,30.13,29.86,15,5,19,0.00
2013-3-16,37,28,19,22,16,11,85,63,34,30.21,30.07,11,3,15,0.00
2013-3-17,41,31,23,22,19,15,76,61,46,30.08,29.73,23,7,28,0.00
2013-3-18,40,32,28,32,27,22,97,82,64,29.73,29.28,14,5,19,0.11
2013-3-19,40,34,31,35,32,30,97,91,80,29.63,29.27,17,4,20,0.13
2013-3-20,50,42,35,38,35,32,92,75,58,29.82,29.70,14,5,16,0.02
2013-3-21,38,34,29,36,29,24,92,81,68,30.12,29.82,17,5,22,0.00
2013-3-22,30,28,27,25,22,20,90,78,66,30.19,30.11,13,5,18,0.00
2013-3-23,30,24,16,21,13,6,81,64,42,30.28,30.17,19,7,25,0.00
2013-3-24,32,22,14,15,8,3,71,55,31,30.27,30.15,22,8,28,0.00
2013-3-25,29,25,21,16,14,12,74,63,49,30.16,29.98,21,8,26,0.00
2013-3-26,31,27,24,14,11,7,63,50,36,29.98,29.91,19,7,29,0.00
2013-3-27,30,26,23,25,20,12,92,78,56,29.98,29.93,16,4,19,0.00
2013-3-28,38,32,27,29,26,23,92,79,63,29.97,29.82,12,4,18,0.00
2013-3-29,41,35,31,33,28,22,96,75,53,29.82,29.70,17,5,24,0.05
2013-3-30,42,36,32,29,26,24,79,67,56,29.78,29.71,13,5,18,0.00
2013-3-31,35,32,29,28,26,24,92,80,67,29.84,29.74,13,5,20,0.00
2013-4-1,35,31,27,27,24,22,90,78,66,29.94,29.82,11,4,13,0.00
2013-4-2,38,32,28,27,25,23,90,75,59,30.00,29.91,13,5,21,0.00
2013-4-3,36,32,30,27,26,24,85,76,63,30.02,29.99,14,5,18,0.00
2013-4-4,37,32,30,30,28,26,90,84,73,30.00,29.90,8,3,12,0.00
2013-4-5,37,34,31,31,30,29,92,87,80,29.90,29.79,8,4,12,0.00
2013-4-6,38,35,33,32,31,30,92,86,77,30.18,29.90,11,4,15,0.00
2013-4-7,40,35,32,31,29,25,92,80,57,30.20,30.10,8,2,14,0.00
2013-4-8,47,39,28,29,26,23,86,61,43,30.10,29.77,15,4,19,0.00
2013-4-9,50,42,37,39,34,28,93,72,59,29.77,29.69,18,3,22,0.09
2013-4-10,53,45,39,42,40,36,96,81,62,29.88,29.69,17,5,22,0.02
2013-4-11,58,49,41,49,42,38,87,78,59,29.88,29.66,19,6,25,0.00
2013-4-12,56,51,47,50,45,40,97,80,62,29.83,29.57,24,6,33,0.15
2013-4-13,57,50,45,42,40,37,82,70,47,30.27,29.83,18,7,25,0.00
2013-4-14,63,57,48,42,40,38,75,53,42,30.40,30.34,9,2,12,0.00
2013-4-15,69,57,44,43,40,35,84,55,33,30.35,30.17,16,4,19,0.00
2013-4-16,69,59,49,49,41,36,71,53,39,30.19,30.12,9,3,13,0.01
2013-4-17,70,62,54,53,50,47,88,65,45,30.25,30.16,8,2,11,0.00
2013-4-18,78,66,52,53,50,46,83,59,35,30.16,29.96,14,5,21,0.00
2013-4-19,63,57,50,54,42,35,88,60,42,30.22,30.02,12,3,16,0.05
2013-4-20,50,48,44,44,41,39,86,78,69,30.34,30.29,13,6,15,0.06
2013-4-21,66,54,43,49,44,38,82,69,54,30.31,29.98,14,5,18,0.00
2013-4-22,69,57,47,53,48,42,84,73,51,30.05,29.95,8,2,11,0.06
2013-4-23,65,58,50,50,45,38,89,64,44,30.24,30.05,15,5,23,0.00
2013-4-24,70,61,49,45,42,36,74,52,37,30.35,30.24,11,4,16,0.00
2013-4-25,75,65,53,49,46,44,76,52,34,30.31,30.13,13,4,17,0.00
2013-4-26,78,68,54,52,46,42,72,49,29,30.13,29.58,17,4,19,0.00
2013-4-27,69,56,46,54,50,44,95,80,49,29.75,29.58,27,6,30,0.17
2013-4-28,50,45,41,44,41,38,97,87,74,30.08,29.70,17,4,21,0.19
2013-4-29,55,51,47,48,46,43,92,84,77,30.18,30.02,11,3,12,0.01
2013-4-30,61,53,47,50,47,45,92,80,67,30.19,30.08,17,5,22,0.00
2013-5-1,56,50,45,50,46,44,100,87,78,30.28,30.14,11,4,16,0.00
2013-5-2,60,55,48,54,51,48,98,87,79,30.13,30.03,13,4,19,0.06
2013-5-3,53,51,50,50,47,45,95,84,81,30.04,29.98,10,4,14,0.06
2013-5-4,64,54,48,53,48,43,93,80,63,30.14,30.03,14,2,18,0.13
2013-5-5,64,56,50,53,50,48,95,81,63,30.27,30.14,12,3,19,0.00
2013-5-6,63,58,52,58,53,48,93,85,80,30.24,30.03,12,4,15,0.02
2013-5-7,71,63,56,61,57,55,97,81,62,30.04,29.94,18,5,21,0.03
2013-5-8,75,64,57,60,57,54,95,79,51,30.02,29.92,13,3,17,0.01
2013-5-9,74,66,55,60,56,54,95,73,51,30.00,29.90,9,2,11,0.00
2013-5-10,64,57,54,57,55,51,100,92,75,30.03,29.85,10,3,18,0.63
2013-5-11,55,54,51,51,49,48,93,85,79,30.03,29.97,8,2,9,0.00
2013-5-12,63,54,48,49,45,39,93,73,45,30.06,29.89,19,5,26,0.02
2013-5-13,56,48,42,46,41,37,87,77,49,30.10,30.02,15,6,27,0.02
2013-5-14,64,56,49,48,45,42,92,68,47,30.02,29.84,10,4,15,0.00
2013-5-15,72,61,48,53,49,44,90,66,46,29.85,29.62,18,6,24,0.00
2013-5-16,74,65,53,54,50,46,87,62,38,29.62,29.47,26,8,33,0.01
2013-5-17,73,65,58,57,54,50,81,68,50,29.56,29.49,24,7,26,0.00
2013-5-18,68,60,53,56,51,47,93,74,49,29.87,29.56,16,4,25,0.17
2013-5-19,75,62,50,57,52,48,94,72,49,29.86,29.63,31,5,37,0.09
2013-5-20,65,57,48,50,45,42,92,66,43,29.92,29.77,13,5,19,0.00
2013-5-21,65,57,48,48,44,40,83,64,43,29.94,29.81,13,4,16,0.01
2013-5-22,60,51,46,50,45,40,91,80,62,29.87,29.68,16,5,27,0.10
2013-5-23,53,48,44,40,37,35,82,67,54,29.87,29.75,17,2,18,0.00
2013-5-24,53,47,40,43,40,36,90,77,62,29.88,29.76,12,4,18,0.01
2013-5-25,53,46,42,46,42,39,93,85,74,29.88,29.82,14,4,20,0.09
2013-5-26,46,44,42,42,41,40,95,89,82,29.83,29.70,17,8,24,0.22
2013-5-27,55,49,42,49,46,41,97,90,78,29.84,29.67,15,7,20,0.33
2013-5-28,64,54,46,52,47,44,92,77,50,29.83,29.57,12,4,15,0.00
2013-5-29,63,55,48,56,51,46,98,87,69,29.68,29.54,11,2,15,0.18
2013-5-30,52,49,47,51,48,46,100,94,88,29.70,29.47,15,6,22,1.03
2013-5-31,58,53,50,54,50,46,100,89,69,29.70,29.44,11,2,19,0.17
2013-6-1,58,52,48,57,50,45,98,93,81,29.76,29.67,15,5,20,0.80
2013-6-2,56,51,48,55,49,45,98,94,86,30.07,29.70,20,8,26,0.93
2013-6-3,52,48,45,48,46,44,96,93,87,30.16,30.07,19,7,21,0.60
2013-6-4,60,54,49,53,50,46,93,85,73,30.14,30.08,15,5,20,0.02
2013-6-5,64,56,48,52,47,43,92,74,50,30.15,30.10,13,6,19,0.00
2013-6-6,67,59,53,57,53,49,93,81,65,30.20,30.14,7,2,11,0.00
2013-6-7,72,64,54,60,56,53,96,78,59,30.17,30.08,9,2,11,0.00
2013-6-8,77,67,58,60,58,55,94,74,49,30.10,29.91,12,2,14,0.00
2013-6-9,78,64,58,62,58,55,94,81,51,29.91,29.72,20,3,25,0.32
2013-6-10,60,58,56,59,56,52,98,94,82,29.89,29.71,11,4,18,0.29
2013-6-11,68,62,54,53,48,44,87,63,42,30.09,29.89,18,6,22,0.00
2013-6-12,75,66,55,52,47,44,75,52,35,30.17,30.09,7,1,11,0.00
2013-6-13,64,63,62,49,48,47,63,59,55,30.15,30.15,5,3,6,0.00
2013-6-14,61,61,61,50,49,49,66,65,65,30.09,30.09,4,1,6,0.06
2013-6-15,76,66,54,59,53,49,86,65,43,30.09,29.95,13,3,16,0.00
2013-6-16,77,70,61,56,52,47,79,56,38,30.07,29.99,15,3,18,0.00
2013-6-17,85,73,60,65,59,53,81,64,47,30.07,29.97,11,2,14,0.00
2013-6-18,92,80,68,72,68,63,86,68,48,30.03,29.96,9,2,12,0.00
2013-6-19,91,81,70,75,68,65,88,67,43,30.03,29.90,14,4,21,0.00
2013-6-20,92,82,71,73,68,60,86,66,44,29.91,29.74,28,4,32,0.00
2013-6-21,77,70,64,62,59,56,92,69,52,30.03,29.82,21,5,39,0.13
2013-6-22,81,71,64,61,57,54,82,61,43,30.05,29.94,10,2,12,0.00
2013-6-23,73,68,62,60,56,50,88,67,50,29.99,29.90,17,4,22,0.07
2013-6-24,64,57,54,54,52,47,96,83,56,30.09,29.98,15,4,20,0.31
2013-6-25,54,53,51,53,51,47,97,92,87,30.19,30.03,20,8,23,1.22
2013-6-26,55,51,49,48,46,41,93,82,61,30.31,30.17,15,6,22,0.03
2013-6-27,62,55,49,47,45,41,85,70,50,30.31,30.21,9,3,13,0.00
2013-6-28,66,58,47,50,46,41,93,66,43,30.22,30.11,7,2,12,0.00
2013-6-29,66,59,51,54,49,46,92,71,52,30.13,30.02,14,5,19,0.00
2013-6-30,62,56,49,54,44,39,93,67,47,30.23,30.10,13,4,19,0.01
2013-7-1,74,64,54,51,48,46,75,57,41,30.17,30.05,12,4,15,0.00
2013-7-2,80,70,57,57,53,50,80,57,40,30.06,29.95,10,3,15,0.00
2013-7-3,77,67,60,65,58,54,89,72,56,29.99,29.89,18,3,22,0.06
2013-7-4,74,67,62,61,60,58,96,78,61,30.23,29.98,9,3,12,0.02
2013-7-5,74,67,64,62,60,58,88,79,60,30.38,30.23,12,3,17,0.00
2013-7-6,74,67,61,62,60,57,91,78,60,30.40,30.34,14,4,15,0.00
2013-7-7,76,69,60,59,55,49,86,62,42,30.42,30.35,11,4,15,0.00
2013-7-8,77,69,61,57,55,52,77,61,45,30.42,30.32,10,3,14,0.00
2013-7-9,79,72,61,59,56,54,81,59,44,30.34,30.11,12,2,13,0.00
2013-7-10,78,71,63,59,56,54,74,61,44,30.11,29.93,15,4,19,0.00
2013-7-11,63,59,55,55,50,49,80,73,63,30.10,29.99,18,5,20,0.00
2013-7-12,70,63,57,55,51,50,79,67,52,30.14,30.09,12,5,18,0.00
2013-7-13,62,60,59,54,52,51,75,74,72,30.14,30.13,5,2,6,0.00
2013-7-14,74,67,60,57,53,50,76,63,48,30.16,30.10,13,4,15,0.00
2013-7-15,69,63,58,57,52,47,86,67,47,30.23,30.12,13,4,20,0.00
2013-7-16,78,68,55,55,51,49,84,56,39,30.27,30.18,9,2,11,0.00
2013-7-17,80,71,60,58,54,51,78,55,37,30.22,30.16,11,2,15,0.00
2013-7-18,81,72,63,58,55,52,76,56,39,30.21,30.14,12,3,15,0.00
2013-7-19,82,73,65,60,57,54,76,58,42,30.17,30.05,12,3,16,0.00
2013-7-20,77,69,63,59,55,51,77,61,43,30.15,30.08,13,4,18,0.00
2013-7-21,81,72,61,57,54,50,81,55,37,30.21,30.13,8,2,13,0.00
2013-7-22,85,74,61,58,52,-100,80,49,27,30.14,29.98,16,1,18,0.00
2013-7-23,74,20,74,50,-59,-100,43,12,43,29.99,29.99,20,6,20,0.00
2013-7-24,-200,0,200,-100,-100,-100,0,0,100,0.00,40.00,12,7,20,0.00
2013-7-25,-200,0,200,-100,-100,-100,0,0,100,0.00,40.00,13,6,17,0.00
2013-7-26,89,82,78,62,56,-100,56,44,37,29.99,29.93,6,1,14,0.00
2013-7-27,94,83,68,65,61,56,80,51,32,29.94,29.80,8,3,11,0.00
2013-7-28,96,84,73,66,61,58,68,48,29,29.90,29.80,9,3,11,0.00
2013-8-1,84,80,73,59,58,57,61,49,41,30.09,30.04,6,2,10,0.00
2013-8-2,93,80,64,62,59,54,84,53,29,30.06,29.95,11,2,12,0.00
2013-8-3,96,83,69,66,61,53,73,50,25,30.05,29.94,11,2,13,0.00
2013-8-4,78,69,63,66,63,60,93,82,58,30.18,30.03,27,6,29,1.20
2013-8-5,82,70,61,66,62,59,96,78,58,30.18,30.03,7,2,10,0.00
2013-8-6,91,78,65,67,64,60,90,63,39,30.03,29.86,28,3,45,0.06
2013-8-7,83,74,63,67,64,61,95,73,56,30.02,29.84,18,4,30,0.15
2013-8-8,81,76,70,68,64,59,81,67,55,30.04,29.81,14,3,19,0.00
2013-8-9,71,62,56,64,56,-100,96,85,71,30.14,30.03,14,5,17,0.24
2013-8-10,58,23,57,54,-37,-100,92,37,88,30.14,30.13,10,4,13,0.00
2013-8-11,72,65,60,58,47,-100,73,57,49,30.11,30.04,16,4,18,0.00
2013-8-12,75,66,53,56,49,-100,87,59,40,30.11,29.92,9,3,18,0.00
2013-8-13,70,64,59,55,50,43,79,62,38,30.13,29.90,14,5,20,0.00
2013-8-14,69,60,52,49,46,42,82,61,40,30.21,30.13,9,3,17,0.00
2013-8-15,-200,0,200,-100,-100,-100,0,0,100,0.00,40.00,3,3,18,0.00
2013-8-16,70,51,66,49,13,-100,55,39,47,30.10,30.10,5,2,19,0.00
2013-8-17,82,70,56,55,51,46,77,52,32,30.10,29.98,10,2,18,0.00
2013-8-18,85,75,63,60,56,52,72,54,36,30.01,29.93,13,3,18,0.00
2013-8-19,72,65,60,62,59,55,97,81,63,30.10,29.97,23,4,29,0.37
2013-8-20,66,59,56,58,54,52,93,82,60,30.39,30.10,13,4,18,0.00
2013-8-21,69,61,51,54,49,-100,93,68,42,30.39,30.25,9,2,15,0.00
2013-8-22,71,62,52,54,50,-100,88,68,46,30.25,30.14,8,1,14,0.00
2013-8-23,72,63,53,54,52,49,91,69,46,30.15,30.07,12,3,19,0.00
2013-8-24,74,65,58,56,53,50,83,66,47,30.10,29.91,19,4,19,0.00
2013-8-25,64,59,56,56,54,50,97,83,72,29.94,29.88,13,5,20,0.35
2013-8-26,62,59,56,56,54,50,98,85,65,30.04,29.93,12,4,16,0.38
2013-8-27,62,58,55,54,52,49,93,81,71,30.03,29.99,9,4,14,0.00
2013-8-28,66,60,54,55,54,52,95,81,64,30.13,29.97,9,3,13,0.09
2013-8-29,73,64,55,56,51,45,82,65,40,30.21,30.13,8,2,12,0.00
2013-8-30,75,64,53,57,51,49,90,65,41,30.19,30.10,8,2,10,0.00
2013-8-31,75,67,59,56,53,50,76,63,43,30.12,30.05,12,5,19,0.00
2013-9-1,63,58,53,57,47,39,95,69,44,30.26,30.11,13,4,19,0.17
2013-9-2,63,56,51,54,48,43,85,74,58,30.26,30.15,16,7,23,0.01
2013-9-3,66,63,61,59,57,54,85,79,73,30.34,30.14,21,7,27,0.00
2013-9-4,73,65,61,61,59,58,92,80,61,30.34,30.20,7,1,9,0.00
2013-9-5,75,65,56,60,57,54,98,77,55,30.21,30.04,7,1,9,0.00
2013-9-6,76,70,60,56,54,50,85,57,42,30.05,29.96,15,4,18,0.00
2013-9-7,78,67,54,58,53,50,87,63,41,30.13,30.02,10,3,15,0.00
2013-9-8,78,67,57,59,54,47,73,62,49,30.13,30.00,9,4,13,0.00
2013-9-9,67,61,54,59,53,45,96,77,51,30.11,29.86,21,4,24,0.22
2013-9-10,65,54,49,54,49,45,95,83,56,30.11,29.95,12,4,17,0.19
2013-9-11,60,54,49,49,47,45,94,79,60,30.04,29.94,14,5,20,0.00
2013-9-12,59,53,51,50,48,46,92,83,65,30.03,29.91,10,3,14,0.19
2013-9-13,60,55,51,53,50,48,92,82,67,30.11,30.03,12,4,17,0.02
2013-9-14,69,60,54,55,51,47,90,74,47,30.07,29.93,15,5,20,0.00
2013-9-15,67,60,56,60,57,54,96,88,72,29.94,29.76,9,3,12,0.04
2013-9-16,58,56,53,56,53,50,96,90,78,29.76,29.55,13,4,19,0.09
2013-9-17,56,49,45,52,44,37,97,82,49,29.74,29.54,21,6,23,0.07
2013-9-18,55,48,42,54,46,40,97,93,85,29.71,29.48,12,5,16,0.15
2013-9-19,57,50,46,48,44,42,91,79,58,29.98,29.65,15,6,25,0.04
2013-9-20,58,52,49,52,48,44,90,86,81,30.10,29.95,13,5,16,0.06
2013-9-21,56,53,52,50,50,49,91,89,77,30.26,30.10,12,6,19,0.01
2013-9-22,60,58,56,52,50,48,83,74,65,30.37,30.26,13,4,14,0.00
2013-9-23,62,58,54,54,52,49,91,79,68,30.26,30.10,19,7,22,0.00
2013-9-24,63,58,56,53,51,50,87,78,69,30.10,29.96,14,4,16,0.00
2013-9-25,61,56,52,54,51,48,90,84,76,29.99,29.85,8,2,12,0.00
2013-9-26,64,56,50,56,52,46,95,87,61,30.02,29.80,18,6,27,0.02
2013-9-27,55,51,47,42,41,39,76,68,61,30.12,30.08,7,2,9,0.00
2013-9-28,57,48,36,42,40,34,94,73,53,30.10,30.02,7,2,13,0.00
2013-9-29,56,49,42,43,40,38,91,74,53,30.06,29.98,18,7,29,0.00
2013-9-30,56,47,41,41,38,36,87,71,50,29.99,29.92,16,6,20,0.00
2013-10-1,54,45,38,38,36,34,87,70,48,30.14,29.96,14,4,16,0.00
2013-10-2,52,44,38,38,34,30,88,68,45,30.41,30.14,15,4,18,0.00
2013-10-3,52,43,34,34,32,29,92,67,45,30.45,30.38,20,5,22,0.00
2013-10-4,56,44,33,34,31,29,88,63,38,30.42,30.27,13,4,16,0.00
2013-10-5,56,46,35,41,35,30,83,68,50,30.27,30.11,9,2,15,0.00
2013-10-6,59,50,44,44,42,39,88,73,55,30.35,30.16,5,1,6,0.00
2013-10-7,55,50,45,47,45,42,92,82,70,30.41,30.35,6,1,7,0.00
2013-10-8,61,51,42,49,45,41,98,83,61,30.37,30.25,8,1,9,0.00
2013-10-9,55,51,43,49,46,41,95,86,76,30.25,29.95,8,3,9,0.00
2013-10-10,62,52,45,51,48,44,96,85,64,29.95,29.70,15,6,22,0.80
2013-10-11,50,46,44,50,44,-100,98,96,95,29.94,29.84,11,4,13,0.03
2013-10-13,56,51,46,44,43,42,89,75,63,30.22,30.18,12,2,14,0.00
2013-10-14,58,46,36,49,43,35,98,90,69,30.23,30.12,6,2,7,0.00
2013-10-15,56,48,42,50,45,42,98,89,74,30.11,29.79,11,4,19,0.00
2013-10-16,51,47,45,46,43,41,91,86,75,30.05,29.77,15,5,20,0.02
2013-10-17,56,46,37,48,43,36,98,88,72,30.04,29.91,18,6,25,0.09
2013-10-18,54,50,46,48,43,41,87,77,67,30.20,29.91,18,6,29,0.06
2013-10-19,59,48,40,46,43,38,95,84,61,30.20,30.06,10,3,13,0.00
2013-10-20,62,53,46,55,49,44,97,86,69,30.11,30.05,8,3,14,0.18
2013-10-21,66,59,54,55,54,52,97,84,67,30.11,30.05,15,5,20,0.00
2013-10-22,66,58,51,59,53,49,96,85,69,30.09,29.96,10,3,14,0.00
2013-10-23,64,56,51,56,53,50,98,90,75,30.01,29.89,6,2,9,0.00
2013-10-24,66,59,55,54,52,50,93,78,59,30.18,30.00,14,4,18,0.00
2013-10-25,57,52,45,53,50,44,98,92,84,30.17,30.09,4,1,10,0.00
2013-10-26,68,58,49,58,52,49,99,85,67,30.11,30.02,13,4,15,0.00
2013-10-27,65,59,53,54,50,-100,92,73,56,30.02,29.79,27,8,32,0.00
2013-10-28,73,61,53,53,48,42,79,63,33,29.92,29.67,20,7,29,0.00
2013-10-29,61,54,49,46,45,43,83,71,55,30.11,29.84,19,7,21,0.00
2013-10-30,55,49,42,44,39,33,87,70,48,30.40,30.11,14,5,19,0.00
2013-10-31,52,44,35,39,36,32,90,75,60,30.42,30.24,6,2,9,0.00
2013-11-1,50,44,38,43,40,35,93,84,67,30.25,30.02,11,3,13,0.00
2013-11-2,57,50,43,53,46,40,96,89,82,30.02,29.73,18,5,25,0.02
2013-11-3,56,50,44,52,45,37,94,83,74,29.82,29.62,18,6,26,0.07
2013-11-4,53,47,41,43,39,35,84,73,53,29.81,29.35,18,7,23,0.00
2013-11-5,52,44,38,44,38,32,93,80,72,29.59,29.36,17,6,22,0.02
2013-11-6,39,38,37,36,35,32,94,91,78,29.61,29.45,9,7,12,0.07
2013-11-7,61,56,52,52,50,48,89,79,71,29.91,29.76,30,8,30,0.02
2013-11-8,62,56,52,52,49,46,88,79,66,29.91,29.78,20,5,25,0.00
2013-11-9,57,50,42,50,44,38,92,81,69,29.95,29.77,15,5,21,0.03
2013-11-10,47,42,39,42,39,36,95,88,75,30.06,29.67,16,5,21,0.17
2013-11-11,42,41,40,38,36,33,90,83,70,30.54,30.06,10,3,13,0.00
2013-11-12,46,40,36,35,33,30,88,76,64,30.53,30.30,5,1,7,0.00
2013-11-13,43,39,34,40,35,32,93,87,78,30.48,30.31,6,2,9,0.00
2013-11-14,37,34,31,34,32,29,97,95,88,30.43,30.18,7,2,9,0.00
2013-11-15,39,36,33,37,35,32,96,95,92,30.48,30.21,6,1,9,0.03
2013-11-16,46,41,38,40,38,37,96,89,79,30.51,30.38,7,2,11,0.00
2013-11-17,39,35,31,37,34,31,99,97,94,30.38,30.19,7,2,10,0.00
2013-11-18,43,40,37,41,38,36,99,95,88,30.19,29.90,10,4,12,0.00
2013-11-19,45,43,40,42,40,38,97,90,87,29.91,29.64,11,4,19,0.00
2013-11-20,44,41,38,42,39,35,97,93,87,29.68,29.56,15,4,21,0.09
2013-11-21,42,39,37,40,36,32,96,88,79,29.68,29.57,12,3,15,0.00
2013-11-22,46,43,42,41,40,38,97,90,76,29.85,29.62,14,4,14,0.00
2013-11-25,34,32,30,28,26,24,88,77,74,30.36,30.27,14,6,18,0.00
2013-11-26,33,30,28,28,26,24,92,85,72,30.54,30.36,16,6,19,0.00
2013-11-27,34,29,24,25,23,20,89,78,62,30.59,30.50,13,4,16,0.00
2013-11-28,36,33,29,33,29,22,93,84,73,30.50,30.33,21,10,26,0.01
2013-11-29,39,36,34,34,33,32,93,87,80,30.35,29.86,20,8,24,0.02
2013-11-30,40,37,34,35,34,33,95,87,80,30.31,29.85,18,8,24,0.03
2013-12-1,41,38,36,36,34,32,92,84,76,30.41,30.31,14,6,19,0.00
2013-12-2,42,39,34,37,34,31,90,84,72,30.65,30.41,10,3,16,0.00
2013-12-3,37,31,24,31,28,23,96,89,75,30.62,30.42,5,1,6,0.00
2013-12-4,36,29,24,32,27,23,97,91,83,30.42,30.27,20,5,25,0.00
2013-12-5,40,37,33,36,32,29,91,83,73,30.36,29.67,26,10,42,0.04
2013-12-6,39,34,29,35,26,22,94,75,61,30.01,29.70,33,12,42,0.00
2013-12-7,35,33,29,32,27,23,95,77,67,30.26,30.00,27,11,35,0.05
2013-12-8,42,38,35,36,35,32,90,86,80,30.33,30.23,20,8,23,0.00
2013-12-9,44,43,41,40,39,36,90,86,83,30.47,30.19,21,9,30,0.05
2013-12-10,47,44,42,44,42,40,94,90,85,30.66,30.47,11,4,14,0.00
2013-12-11,43,41,38,41,39,37,95,92,90,30.65,30.58,7,2,9,0.00
2013-12-12,38,34,32,37,33,31,98,98,95,30.60,30.46,6,2,9,0.00
2013-12-13,32,31,30,31,31,30,98,98,98,30.46,30.34,5,2,7,0.00
2013-12-14,31,31,31,31,31,31,98,98,98,30.35,30.27,1,1,0,0.00
2013-12-15,41,39,37,35,33,32,84,79,75,30.54,30.47,16,6,20,0.00
2013-12-16,47,38,33,36,32,29,89,78,57,30.55,30.50,8,3,12,0.00
2013-12-17,38,31,26,31,28,25,96,89,74,30.50,30.45,8,2,10,0.00
2013-12-18,30,28,26,27,26,25,97,94,89,30.45,30.22,9,3,11,0.00
2013-12-19,31,29,26,27,26,24,94,88,85,30.22,30.05,14,6,17,0.00
2013-12-20,38,33,30,35,30,27,95,88,81,30.55,30.16,18,4,19,0.00
2013-12-21,41,36,31,34,32,29,94,86,71,30.59,30.39,14,4,19,0.00
2013-12-22,49,41,32,43,36,30,96,83,73,30.39,30.16,22,4,24,0.00
2013-12-23,49,46,42,42,40,38,86,78,66,30.21,30.00,16,6,20,0.00
2013-12-24,42,37,32,38,34,30,94,88,79,30.00,29.67,15,5,19,0.00
2013-12-25,44,39,35,40,37,34,96,92,87,29.67,29.42,9,2,9,0.00
2013-12-26,52,42,36,43,39,35,97,89,72,29.64,29.35,11,3,12,0.00
2013-12-27,46,42,38,40,37,34,95,84,70,29.87,29.64,12,6,18,0.00
2013-12-28,39,36,33,36,34,31,97,92,88,29.85,29.78,12,4,15,0.00
2013-12-29,43,40,34,38,35,33,97,84,72,30.33,29.84,19,5,23,0.00
2013-12-30,41,36,32,34,32,28,91,84,70,30.46,30.33,12,4,13,0.00
2013-12-31,34,30,24,34,28,22,100,93,88,30.38,30.14,4,1,7,0.00
2014-1-1,38,35,33,33,32,30,94,89,83,30.14,29.99,8,2,19,0.00
2014-1-2,38,35,31,34,32,29,100,88,83,29.99,29.88,8,3,11,0.00